Miscellaneous Local Product
Issued by NWS Hastings, NE

Home | Current Version | Previous Version | Text Only | Print | Product List | Glossary Off
Versions: 1 2 3 4 5 6 7 8 9 10 11 12 13 14 15 16 17 18 19 20 21 22 23 24 25 26 27 28 29 30 31 32 33 34 35 36 37 38 39 40 41 42 43 44 45 46 47 48 49 50

355
AXUS43 KGID 250502
MISGRI

GID CWA HOURLY WEATHER ROUNDUP
NATIONAL WEATHER SERVICE HASTINGS NE
1200 AM CDT TUE JUL 25 2017

NOTE: "FAIR" INDICATES FEW OR NO CLOUDS BELOW 12,000 FEET WITH NO
SIGNIFICANT WEATHER AND/OR OBSTRUCTIONS TO VISIBILITY.

...SOUTH CENTRAL NEBRASKA...

CITY           SKY/WX    TMP DP  RH WIND       PRES   REMARKS
GRAND ISLAND   CLEAR     77  72  84 SE13      29.98R
HASTINGS       CLEAR     79  70  74 S10       29.99R
KEARNEY        PTCLDY    78  69  73 S15       29.98R
ORD            PTCLDY    79  68  69 SE10      29.94R
YORK           CLEAR     75  70  83 SE9       29.99R
AURORA         CLEAR     74  72  91 SE9       29.98S
LEXINGTON      CLOUDY    77  59  53 S9        29.97R
HOLDREGE       PTCLDY    72  62  71 S9        29.98S
HEBRON         CLEAR     79  73  82 SE9       29.99S

...NEBRASKA PANHANDLE...

CITY           SKY/WX    TMP DP  RH WIND       PRES   REMARKS
CHADRON        CLEAR     78  52  40 CALM      29.87S
ALLIANCE       CLEAR     79  53  40 S18G25    29.94R
SCOTTSBLUFF    CLEAR     75  55  49 E6        29.95R
SIDNEY         PTCLDY    78  56  46 S20G29    30.02R

...WESTERN AND NORTH CENTRAL NEBRASKA...

CITY           SKY/WX    TMP DP  RH WIND       PRES   REMARKS
VALENTINE      CLEAR     83  62  49 SE15      29.91R
AINSWORTH      CLEAR     80  69  69 SE22      29.93S
ONEILL         LGT RAIN  77  71  80 E10       30.00S
BROKEN BOW     CLOUDY    79  67  66 S14       29.95S
IMPERIAL       MOCLDY    83  58  42 S15G24    29.98F
NORTH PLATTE   CLEAR     83  55  38 S7        29.95R
MCCOOK         CLOUDY    84  55  36 S17G24    29.95F

...EASTERN NEBRASKA...

CITY           SKY/WX    TMP DP  RH WIND       PRES   REMARKS
NORFOLK        CLOUDY    76  65  68 SE14      29.96R
SO SIOUX CITY  PTCLDY    74  67  78 SE12      29.95S
TEKAMAH        PTCLDY    73  66  78 SE8       29.98R
COLUMBUS       CLOUDY    76  67  73 SE8       29.98R
ALBION         CLOUDY    76  70  81 SE6       29.97S
OMAHA EPPLEY   CLEAR     77  65  66 SE10      29.99S
OFFUTT AFB     CLEAR     74  66  76 SE9       29.99S
MILLARD        PTCLDY    76  69  78 SE7       29.99R
LINCOLN        PTCLDY    78  66  66 S14       29.99R
NEBRASKA CITY  CLEAR     73  70  88 SE8       30.01R
BEATRICE       CLEAR     78  69  73 SE8       30.00R
FALLS CITY     CLEAR     71  68  90 SE5       30.01R

...NORTHERN KANSAS...

CITY           SKY/WX    TMP DP  RH WIND       PRES   REMARKS
GOODLAND       CLEAR     76  58  53 S14       30.03S
HILL CITY      PTCLDY    80  55  42 S7        30.00R
NORTON         CLEAR     79  46  31 S12       29.99R
PHILLIPSBURG   CLEAR     79  55  44 SE5       29.99R
SMITH CENTER     N/A     79  64  61 SE12      29.99R
HAYS             N/A     81  60  48 S12       30.00R
RUSSELL        CLEAR     78  62  57 SE9       30.00R
CONCORDIA      PTCLDY    77  73  87 SE8       30.00R
SALINA         CLEAR     84  69  60 SE12      29.99R
TOPEKA         CLEAR     76  72  87 E3        30.01R



USA.gov is the U.S. government's official web portal to all federal, state and local government web resources and services.